EW9178 Weather Reports


time (UTC)temp
C
wind
direction
speed
KPH
gust
KPH
rain 1hr
cm
rain 24hr
cm
rain mn
cm
humidity
%
barometer
mb
20260503021023 12 250 0.0 1.6 0.00 0.84 0.71 94 1011.1
20260503020030 12 242 0.0 3.2 0.00 0.84 0.71 94 1011.2
20260503015043 12 259 0.0 3.2 0.00 0.84 0.71 94 1011.2
20260503014030 12 0.0 0.0 0.00 0.84 0.71 94 1011.1
20260503013041 12 260 1.6 3.2 0.00 0.84 0.71 94 1011.1
20260503012048 12 79 0.0 3.2 0.00 0.84 0.71 94 1011.2
20260503011041 12 333 0.0 1.6 0.00 0.84 0.71 94 1011.4
20260503010029 12 315 1.6 3.2 0.00 0.84 0.71 94 1011.5
20260503005020 12 53 1.6 4.8 0.00 0.84 0.71 94 1011.5
20260503004049 12 331 0.0 3.2 0.00 0.84 0.71 94 1011.6
20260503003020 12 266 0.0 1.6 0.03 0.84 0.71 94 1011.8
20260503002027 12 0.0 0.0 0.08 0.84 0.71 93 1011.8
20260503001020 12 60 0.0 3.2 0.18 0.84 0.71 93 1011.8
20260503000027 12 328 0.0 3.2 0.33 0.84 0.71 93 1012.1
20260502235018 12 239 1.6 3.2 0.43 0.84 0.71 93 1011.8
20260502234048 12 40 1.6 4.8 0.48 0.84 0.71 93 1011.8
20260502233019 12 84 1.6 3.2 0.64 0.81 0.69 92 1012.2
20260502232026 13 78 0.0 3.2 0.64 0.76 0.64 92 1012.4
20260502231018 13 68 3.2 4.8 0.53 0.66 0.53 91 1013.3
20260502230026 13 88 0.0 1.6 0.38 0.51 0.38 90 1013.8
20260502225039 13 74 0.0 1.6 0.28 0.41 0.28 89 1014.1
20260502224027 13 63 0.0 1.6 0.25 0.36 0.23 86 1014.3
20260502223017 13 235 1.6 9.7 0.18 0.18 0.05 83 1014.6
20260502222026 13 248 1.6 4.8 0.13 0.13 0.00 85 1014.7
20260502221018 13 246 1.6 6.4 0.13 0.13 0.00 87 1013.7
20260502220024 14 82 1.6 3.2 0.13 0.13 0.00 85 1013.5
20260502215032 14 0.0 0.0 0.13 0.13 0.13 84 1013.6
20260502214023 15 325 0.0 3.2 0.10 0.10 0.10 80 1013.7
20260502213037 15 333 1.6 4.8 0.00 0.00 0.00 81 1013.6
20260502212023 14 73 0.0 3.2 0.00 0.00 0.00 83 1013.0
20260502211032 14 43 0.0 1.6 0.00 0.00 0.00 83 1013.1
20260502210023 14 53 1.6 3.2 0.00 0.00 0.00 84 1013.1
20260502205031 14 67 1.6 6.4 0.00 0.00 0.00 85 1013.4
20260502204023 14 48 1.6 4.8 0.00 0.00 0.00 85 1013.5
20260502203031 14 49 0.0 3.2 0.00 0.00 0.00 85 1013.7
20260502202024 14 77 1.6 3.2 0.00 0.00 0.00 84 1013.7
20260502201031 15 42 1.6 4.8 0.00 0.00 0.00 82 1013.9
20260502200022 15 34 1.6 3.2 0.00 0.00 0.00 76 1014.1
20260502195051 15 67 0.0 1.6 0.00 0.00 0.00 68 1014.0
20260502194022 15 86 0.0 1.6 0.00 0.00 0.00 65 1014.0
20260502193029 15 74 0.0 1.6 0.00 0.00 0.00 63 1014.1
20260502192022 15 81 0.0 1.6 0.00 0.00 0.00 61 1014.1
20260502191030 16 88 0.0 1.6 0.00 0.00 0.00 60 1014.1
20260502190044 16 71 0.0 1.6 0.00 0.00 0.00 60 1014.1
20260502185030 16 71 0.0 1.6 0.00 0.00 0.00 60 1014.0
20260502184021 16 70 1.6 4.8 0.00 0.00 0.00 59 1014.0
20260502183030 17 98 1.6 3.2 0.00 0.00 0.00 60 1014.0
20260502182021 17 76 1.6 4.8 0.00 0.00 0.00 61 1014.0
20260502181030 17 125 1.6 4.8 0.00 0.00 0.00 61 1014.0
20260502164020 21 185 3.2 11.3 0.00 0.00 0.00 50 1014.8
20260502163029 22 221 1.6 4.8 0.00 0.00 0.00 49 1015.0
20260502162020 22 200 3.2 6.4 0.00 0.00 0.00 50 1015.0
20260502161027 23 180 1.6 4.8 0.00 0.00 0.00 51 1014.8
20260502152019 22 219 3.2 4.8 0.00 0.00 0.00 52 1015.3
20260502151026 22 207 1.6 4.8 0.00 0.00 0.00 53 1015.4
20260502123025 21 233 6.4 12.9 0.00 0.00 0.00 63 1016.8
20260502122046 21 218 4.8 12.9 0.00 0.00 0.00 63 1017.0
20260502121037 21 233 4.8 11.3 0.00 0.00 0.00 64 1016.9
20260502115031 21 241 4.8 9.7 0.00 0.00 0.00 63 1017.0
20260502114022 21 247 4.8 11.3 0.00 0.00 0.00 61 1017.1
20260502113029 21 254 4.8 9.7 0.00 0.00 0.00 61 1017.1
20260502112018 20 238 4.8 9.7 0.00 0.00 0.00 63 1017.2
20260502111047 21 234 3.2 12.9 0.00 0.00 0.00 63 1017.4
20260502110122 21 236 4.8 12.9 0.00 0.00 0.00 60 1017.4
20260502105025 21 248 4.8 12.9 0.00 0.00 0.00 61 1017.3
20260502104017 21 241 4.8 12.9 0.00 0.00 0.00 61 1017.4
20260502103024 20 235 4.8 12.9 0.00 0.00 0.00 62 1017.5
20260502102017 20 254 4.8 9.7 0.00 0.00 0.00 63 1017.6
20260502101044 20 242 4.8 12.9 0.00 0.00 0.00 64 1017.6
20260502091020 17 242 1.6 4.8 0.00 0.00 0.00 65 1017.6
20260502071019 14 216 0.0 1.6 0.00 0.00 0.00 59 1017.7
20260502070026 13 239 1.6 3.2 0.00 0.00 0.00 59 1017.9
20260502065019 13 226 1.6 4.8 0.00 0.00 0.00 59 1017.8
20260502064046 13 231 1.6 3.2 0.00 0.00 0.00 59 1017.8
20260502063017 13 231 0.0 1.6 0.00 0.00 0.00 59 1017.9
20260502062026 13 238 1.6 3.2 0.00 0.00 0.00 59 1017.9
20260502061017 13 241 1.6 4.8 0.00 0.00 0.00 58 1018.0
20260502060024 13 236 3.2 6.4 0.00 0.00 0.00 58 1017.9
20260502055018 13 249 1.6 4.8 0.00 0.00 0.00 59 1017.7
20260502054024 12 138 0.0 1.6 0.00 0.00 0.00 64 1017.4
20260502053021 11 0.0 0.0 0.00 0.00 0.00 66 1017.4
20260502052025 11 0.0 0.0 0.00 0.00 0.00 68 1017.7
20260502051016 10 282 0.0 1.6 0.00 0.00 0.00 71 1017.7
20260502050028 10 162 0.0 1.6 0.00 0.00 0.00 72 1017.7
20260502045032 9 0.0 0.0 0.00 0.00 0.00 73 1017.7
20260502044024 9 250 0.0 1.6 0.00 0.00 0.00 72 1017.7
20260502043032 9 0.0 0.0 0.00 0.00 0.00 73 1017.6
20260502042044 10 0.0 0.0 0.00 0.00 0.00 72 1017.5
20260502041051 10 0.0 0.0 0.00 0.00 0.00 71 1017.6
20260502040022 9 0.0 0.0 0.00 0.00 0.00 72 1017.7
20260502035029 9 0.0 0.0 0.00 0.00 0.00 72 1017.8
20260502034103 9 0.0 0.0 0.00 0.00 0.00 72 1017.8
20260502033030 10 0.0 0.0 0.00 0.00 0.00 71 1017.9
20260502032021 10 0.0 0.0 0.00 0.00 0.00 71 1018.0
20260502031050 10 0.0 0.0 0.00 0.00 0.00 71 1018.0
20260502030026 10 0.0 0.0 0.00 0.00 0.00 71 1018.2
20260502025111 10 0.0 0.0 0.00 0.00 0.00 71 1018.3
20260502024021 10 0.0 0.0 0.00 0.00 0.00 71 1018.3
20260502023030 10 0.0 0.0 0.00 0.00 0.00 70 1018.2
20260502022021 10 0.0 0.0 0.00 0.00 0.00 69 1018.3